Regional Weather Roundup
Issued by NWS State College, PA

Home | Current Version | Previous Version | Text Only | Print | Product List | Glossary On
Versions: 1 2 3 4 5 6 7 8 9 10 11 12 13 14 15 16 17 18 19 20 21 22 23 24 25 26 27 28 29 30 31 32 33 34 35 36 37 38 39 40 41 42 43 44 45 46 47 48 49 50
000
ASUS41 KCTP 100010
RWRCTP

REGIONAL WEATHER ROUNDUP
NATIONAL WEATHER SERVICE STATE COLLEGE PA
800 PM EDT WED JUL 09 2014

Note: "fair" indicates few or no clouds below 12,000 feet with no
significant weather and/or obstructions to visibility.

* = STATION THAT DOES NOT REPORT PRECIPITATION /E.G. RAIN...SNOW...ETC/
    THUNDER OR FOG.

PAZ002>004-007>009-013>016-020>023-029>032-100100-
WESTERN PENNSYLVANIA

CITY           SKY/WX    TMP DP  RH WIND       PRES   REMARKS
ERIE           CLEAR     70  52  52 NW5       29.97R
MEADVILLE      CLOUDY    67  57  70 NW3       29.98R
FRANKLIN*      MOCLDY    68  57  68 CALM      29.99R
NEW CASTLE     NOT AVBL
BEAVER COUNTY  MOCLDY    73  54  49 NW3       29.95R
BUTLER*        PTCLDY    73  55  53 CALM      29.96R
PITTSBURGH INT MOCLDY    77  55  46 W7        29.95R
PITTSBURGH     MOCLDY    79  55  43 NW5       29.94R
INDIANA*       CLEAR     77  57  50 CALM      29.99R
LATROBE        PTCLDY    79  63  57 CALM      29.95R
WASHINGTON CO* CLEAR     75  55  50 W5        29.96R
$$

PAZ004>006-010>012-017>019-024>028-033>037-041-042-045-046-049>053-100100-
CENTRAL PENNSYLVANIA

CITY           SKY/WX    TMP DP  RH WIND       PRES   REMARKS
BRADFORD       CLEAR     67  56  67 NW8       29.99R
DUBOIS         CLEAR     72  60  66 N6        29.97R
CLEARFIELD     CLEAR     73  60  63 N7        29.96R
JOHNSTOWN      MOCLDY    73  56  54 NW3       29.99R
ALTOONA        CLEAR     74  62  66 W5        29.96R
STATE COLLEGE  PTCLDY    73  61  64 NW6       29.96R
WILLIAMSPORT   PTCLDY    73  68  84 SW3       29.91R
SELINSGROVE    MOCLDY    76  69  79 N3        29.91R
FT INDIANTOWN  PTCLDY    79  67  65 SW5       29.90R
CAPITAL CITY   PTCLDY    80  67  64 S9        29.88R
HARRISBURG     MOCLDY    81  69  67 SW9       29.88R
YORK           MOCLDY    80  66  62 SW8       29.90R
$$

PAZ038>040-043-044-047-048-054-055-060>062-067>071-100100-
EASTERN PENNSYLVANIA

CITY           SKY/WX    TMP DP  RH WIND       PRES   REMARKS
SCRANTON       CLEAR     71  62  73 SE3       29.94R
MOUNT POCONO   MOCLDY    70  58  65 W5        29.98R
ALLENTOWN      MOCLDY    80  66  62 SW6       29.89S
QUAKERTOWN*    MOCLDY    81  66  61 S3        29.91S
READING        MOCLDY    77  70  79 SE3       29.88F
LANCASTER      MOCLDY    80  67  64 S6        29.89S
COATESVILLE    CLOUDY    75  68  78 CALM      29.93S
POTTSTOWN      MOCLDY    80  66  62 CALM      29.91S
BLUE BELL      CLOUDY    82  68  61 SW5       29.89S
DOYLESTOWN     CLOUDY    81  65  58 SW7       29.89S
WILLOW GROVE   NOT AVBL
NORTH PHILA    CLOUDY    85  64  49 SW9       29.90R
PHILADELPHIA   CLOUDY    84  67  56 SW8       29.90R
$$


USA.gov is the U.S. government's official web portal to all federal, state and local government web resources and services.